Location: Unspecified
(50.0077°N, 36.2988°E)
Time: 20:36:33
(UTC+00:00)

ISS - Pass Details

Date: 24 September 2020
Orbit: 417 x 420 km, 51.6° (Epoch: 27 October)

Event Time Altitude Azimuth Distance (km) Brightness Sun altitude
Rises 16:39:24 0° 259° (W) 2,364 1.4 -12.2°
Reaches altitude 10° 16:41:30 10° 261° (W) 1,502 0.2 -12.6°
Maximum altitude 16:44:52 77° 347° (NNW) 437 -3.7 -13.1°
Enters shadow 16:46:59 21° 72° (ENE) 1,004 -2.3 -13.4°
